Wind_Speed
17 16 15 16 15 14 14 13 12 10 10 11 12 14 15 16 17 18 18 18 17 17 17 16 17 17 19 19 18 17 15 16 17 20 23 26 26 25 24 23 21 17 17
17 17 18 17 15 14 13 12 11 11 12 13 13 14 15 15 16 16 17 18 18 17 16 16 17 17 18 18 18 18 17 16 16 20 21 24 29 30 29 27 24 21 20
18 18 15 14 13 14 13 13 12 13 14 15 15 17 17 18 18 18 19 20 20 18 17 16 18 17 18 18 19 19 18 16 15 20 24 25 30 30 29 30 29 26 25
17 15 14 14 14 14 15 15 16 16 17 18 19 20 20 20 20 21 22 22 22 21 20 19 18 18 18 17 19 18 16 16 15 16 20 22 25 27 32 33 32 28 27
17 16 16 16 16 17 17 18 19 20 21 22 22 23 22 22 23 24 25 25 25 24 22 20 18 17 18 17 17 18 17 16 15 15 16 19 23 26 26 28 30 28 26
19 19 20 20 20 20 20 21 22 23 24 25 25 25 25 26 27 27 28 27 25 24 23 22 20 18 18 18 18 19 19 16 15 15 14 17 22 25 24 26 26 24 23
21 22 22 23 23 23 24 25 26 27 27 27 27 27 28 28 29 28 27 27 25 24 23 21 20 19 19 19 19 18 19 18 17 16 15 14 17 21 25 27 26 25 25
22 24 25 24 25 26 27 27 28 28 28 28 28 29 28 28 27 27 26 25 26 25 24 22 20 20 20 20 20 19 19 19 19 19 19 17 17 18 21 25 28 27 27
25 25 26 28 28 28 29 28 28 28 28 28 29 29 28 28 28 27 27 26 27 27 27 26 23 22 20 21 21 21 20 21 21 22 22 21 20 20 19 21 24 27 28
29 27 26 27 30 30 29 28 28 27 27 27 27 27 27 27 27 27 27 27 28 29 29 29 27 25 23 22 22 23 22 22 23 24 25 25 23 24 22 21 22 24 26
30 29 27 27 28 29 28 27 27 26 26 26 26 26 27 28 29 29 29 30 30 30 31 32 31 28 26 25 25 25 25 24 24 25 27 28 26 26 26 24 21 21 23
30 28 27 27 27 28 29 28 28 28 29 29 30 30 31 31 32 33 34 33 33 33 33 34 34 32 30 28 29 28 27 26 25 26 28 30 30 28 28 27 25 22 21
28 27 26 26 27 30 32 32 32 33 34 35 36 36 37 38 38 38 39 38 38 38 37 37 36 36 35 32 32 32 30 29 28 28 29 31 32 31 30 31 30 26 24
27 29 30 30 31 33 36 37 38 39 40 41 41 42 42 43 43 44 43 41 41 41 41 40 40 40 39 37 36 34 34 32 32 31 31 32 34 34 33 33 33 31 29
32 33 35 37 39 39 40 41 43 44 44 45 46 47 47 47 47 47 45 42 41 41 41 41 42 42 41 41 40 39 38 38 36 34 34 34 35 36 36 36 35 34 33
39 41 42 43 44 45 45 45 46 46 46 47 47 48 49 49 49 49 46 42 40 41 42 44 44 45 46 47 46 45 43 41 41 40 39 37 36 36 37 38 37 37 37
45 46 47 48 48 49 49 49 48 48 47 47 47 48 49 50 50 49 47 45 43 44 45 47 48 49 50 51 51 50 49 45 42 43 44 42 41 38 37 39 40 39 40
48 48 49 49 50 50 50 49 49 48 47 47 47 48 48 48 48 48 48 48 49 49 48 49 50 51 51 52 53 54 53 51 47 44 44 44 45 43 40 41 42 42 42
49 50 50 50 51 51 51 50 49 48 47 47 47 48 47 47 47 47 48 49 50 51 50 49 49 51 53 54 55 56 56 55 54 51 47 45 46 47 45 44 44 44 45
52 52 52 52 52 51 49 47 46 46 45 45 46 46 46 46 45 45 44 45 45 46 47 47 48 50 52 54 56 57 57 57 58 57 55 49 47 48 49 47 46 46 47
55 53 52 52 51 49 46 44 42 43 43 44 44 43 42 41 41 40 41 42 43 45 48 51 52 53 54 56 58 60 61 61 62 62 59 52 48 48 49 49 49 49 49
54 51 51 49 47 45 43 41 41 40 40 40 39 37 37 37 38 40 42 44 46 48 50 54 56 58 58 59 61 63 63 63 63 63 60 55 50 49 50 51 52 52 53
51 50 50 50 45 41 40 38 37 36 36 34 33 34 35 37 39 42 45 48 50 52 55 58 60 62 63 62 62 63 64 64 61 58 56 55 54 53 52 54 55 55 55
49 52 54 53 50 46 41 36 35 34 34 34 33 34 36 38 41 44 48 52 55 58 60 62 64 66 66 65 66 66 67 67 64 62 54 50 53 57 58 57 58 58 57
52 53 52 48 47 46 41 35 34 34 34 34 34 35 38 42 46 50 53 55 57 59 61 62 63 65 67 68 69 70 71 72 70 68 64 54 50 54 59 61 63 62 62
50 50 46 44 46 42 34 32 33 33 32 32 34 37 41 45 48 51 54 56 58 59 59 59 60 62 63 65 67 69 72 74 76 74 73 71 64 58 52 57 64 63 64
Wind_Direction
293 291 288 286 283 283 285 289 290 287 287 292 296 299 302 304 305 305 305 306 307 302 298 302 307 309 308 306 307 307 297 276 264 255 245 239 238 239 243 247 251 248 241
288 287 286 279 274 274 277 281 280 278 281 284 285 289 293 297 301 305 306 306 305 305 304 303 302 306 307 305 304 306 307 297 269 258 252 248 244 237 237 241 245 250 255
286 285 282 275 270 270 271 272 272 274 276 278 281 287 290 292 297 301 304 305 304 303 304 302 300 300 303 302 297 301 306 303 282 266 257 251 244 234 238 241 241 243 247
281 277 276 272 266 265 264 265 268 271 273 275 281 286 289 292 295 299 302 304 303 304 304 301 296 292 295 297 291 291 303 307 290 277 264 255 253 249 244 241 239 238 244
275 272 271 269 267 265 263 263 264 266 269 274 280 284 287 288 289 292 297 300 301 302 303 303 295 286 285 291 289 282 287 305 301 282 273 263 255 253 252 245 238 234 238
274 270 270 269 268 266 265 266 266 268 270 274 278 281 282 282 284 288 292 295 298 300 301 303 300 288 282 285 287 282 277 284 296 290 274 260 254 251 247 246 248 245 248
276 276 274 274 272 270 268 268 270 271 272 273 275 277 280 283 287 290 291 293 296 299 301 302 302 294 286 280 281 280 273 271 277 284 281 271 261 251 247 248 250 251 251
278 278 278 273 273 273 273 272 273 274 274 274 275 278 282 285 287 289 290 292 294 297 299 300 299 296 289 282 278 276 271 265 268 273 277 277 273 263 255 254 252 251 251
282 279 277 276 272 271 273 274 275 275 275 275 276 277 279 280 282 284 286 289 291 292 294 294 294 293 290 284 279 275 272 266 264 267 272 273 273 271 265 259 257 254 251
285 282 279 277 277 276 275 276 276 276 276 277 278 281 282 283 284 285 287 288 289 288 289 289 288 286 285 284 282 277 273 268 262 263 266 269 270 272 270 264 258 255 253
280 280 280 276 275 277 277 275 274 275 276 278 280 282 283 284 285 286 286 286 286 285 285 285 285 284 281 278 278 277 276 273 266 262 262 265 266 267 268 267 261 256 254
283 281 280 281 282 283 284 282 283 284 285 286 286 284 283 283 285 286 286 285 283 282 280 280 280 281 280 277 274 274 274 273 267 262 260 262 265 266 267 265 263 257 253
290 289 285 284 287 287 286 286 286 287 287 287 286 285 285 284 283 283 284 283 282 280 279 278 276 276 277 277 277 276 273 270 268 263 258 258 261 263 265 265 261 255 249
286 286 285 282 280 280 282 283 283 283 284 284 285 283 281 279 279 278 278 277 277 277 277 276 275 275 275 275 274 274 275 274 267 264 261 257 257 258 259 261 259 254 249
283 282 281 280 280 279 279 279 279 280 280 280 280 280 279 277 275 275 274 272 272 272 273 272 271 272 273 273 273 272 270 270 270 265 261 259 257 257 256 255 255 253 249
284 283 283 282 281 280 279 279 278 277 277 278 277 276 275 274 274 273 270 268 267 267 268 269 269 269 269 269 270 271 270 271 272 271 265 261 257 256 255 253 251 251 249
286 285 283 281 279 278 277 277 277 277 276 274 272 270 270 270 269 269 269 268 266 266 267 268 269 269 269 269 269 270 270 270 269 270 271 267 262 257 253 253 250 249 248
288 287 285 283 282 281 280 279 278 276 274 271 268 267 267 268 269 269 269 269 269 270 270 271 271 271 272 271 271 270 269 268 266 266 267 268 266 262 254 250 250 248 247
292 290 289 287 285 283 282 280 278 275 272 269 268 267 267 267 267 268 268 268 269 270 271 271 272 272 272 272 271 270 269 268 267 267 265 263 262 261 257 251 248 247 246
291 290 290 289 287 285 283 280 277 273 270 268 268 268 268 268 267 266 266 267 269 270 271 272 272 272 272 272 271 270 269 270 270 268 264 259 257 257 257 254 249 246 245
290 290 288 287 285 283 281 277 274 272 272 270 267 264 263 265 267 269 270 272 274 275 275 275 273 272 271 271 271 271 270 270 270 270 267 259 251 249 251 253 252 247 244
289 287 286 284 282 279 276 273 272 270 267 265 264 265 266 268 270 271 272 272 272 272 272 273 274 274 272 270 270 269 267 268 271 271 269 263 254 246 243 246 249 248 246
288 286 285 282 278 274 271 269 266 264 262 262 264 267 269 273 276 278 278 276 275 274 274 273 272 271 270 269 268 269 268 269 267 265 264 261 254 247 244 244 244 246 247
283 284 285 282 275 270 265 264 266 267 264 265 269 272 275 278 281 282 282 281 280 278 275 272 270 267 266 264 264 265 267 269 267 266 261 256 254 246 241 241 243 243 244
283 284 284 283 277 272 267 266 266 265 269 274 278 281 284 288 289 288 285 281 277 275 272 271 271 270 268 266 264 262 262 264 265 264 263 258 253 247 243 240 240 240 240
286 283 278 275 274 270 262 263 263 266 272 278 283 287 288 289 287 284 282 280 279 278 277 277 277 276 273 270 266 263 261 259 259 259 262 261 260 256 243 239 240 239 238
Height
5861 5860 5858 5857 5856 5855 5853 5852 5851 5850 5850 5850 5849 5849 5848 5847 5847 5846 5845 5844 5843 5841 5840 5839 5839 5837 5836 5835 5834 5834 5833 5833 5835 5836 5837 5838 5840 5842 5843 5843 5844 5845 5846
5859 5858 5856 5854 5853 5852 5851 5850 5850 5849 5848 5848 5847 5846 5845 5845 5844 5843 5842 5840 5839 5839 5838 5837 5835 5834 5834 5833 5832 5832 5831 5831 5832 5833 5833 5834 5835 5836 5839 5840 5841 5843 5844
5856 5854 5853 5851 5851 5850 5849 5848 5848 5847 5846 5845 5844 5844 5843 5842 5841 5840 5839 5838 5837 5836 5835 5834 5832 5831 5830 5830 5830 5829 5828 5828 5828 5829 5829 5830 5831 5832 5834 5836 5836 5839 5841
5852 5851 5850 5849 5848 5847 5846 5846 5846 5845 5844 5843 5842 5841 5840 5839 5838 5837 5836 5835 5834 5833 5832 5831 5829 5828 5827 5827 5826 5826 5826 5826 5825 5825 5825 5825 5827 5828 5830 5832 5832 5835 5837
5849 5848 5847 5846 5846 5845 5844 5843 5842 5842 5841 5839 5838 5837 5836 5835 5834 5834 5833 5831 5830 5829 5828 5828 5826 5825 5824 5823 5822 5822 5823 5824 5823 5822 5822 5822 5822 5824 5825 5828 5829 5830 5832
5846 5845 5844 5843 5843 5842 5840 5839 5839 5838 5836 5836 5835 5833 5832 5831 5830 5829 5829 5827 5826 5825 5825 5824 5823 5822 5821 5820 5819 5818 5819 5820 5821 5820 5820 5819 5820 5821 5822 5824 5825 5825 5827
5843 5841 5841 5840 5839 5838 5836 5835 5834 5833 5832 5831 5830 5829 5828 5827 5826 5825 5823 5822 5822 5821 5820 5820 5819 5818 5817 5816 5815 5815 5815 5817 5818 5818 5817 5817 5816 5817 5819 5820 5821 5821 5823
5840 5838 5836 5836 5835 5833 5832 5831 5830 5828 5827 5826 5825 5824 5823 5822 5821 5819 5818 5817 5816 5816 5816 5815 5815 5814 5813 5812 5812 5812 5812 5813 5813 5813 5813 5813 5813 5813 5814 5815 5816 5818 5820
5834 5833 5831 5830 5829 5828 5827 5826 5825 5823 5822 5821 5820 5819 5818 5817 5815 5815 5814 5813 5812 5811 5811 5810 5810 5809 5809 5808 5807 5808 5808 5809 5809 5810 5809 5809 5809 5810 5810 5811 5812 5813 5815
5828 5827 5826 5825 5823 5822 5822 5820 5819 5818 5817 5816 5815 5814 5813 5812 5811 5810 5809 5808 5807 5806 5805 5804 5804 5804 5803 5803 5803 5803 5804 5804 5805 5805 5804 5804 5804 5805 5806 5806 5807 5808 5809
5822 5821 5821 5820 5818 5816 5816 5815 5813 5812 5811 5811 5810 5809 5808 5807 5806 5805 5803 5802 5802 5801 5800 5799 5797 5797 5797 5798 5797 5798 5798 5799 5799 5799 5799 5799 5800 5800 5801 5802 5802 5803 5804
5816 5816 5815 5814 5812 5811 5809 5808 5808 5806 5805 5804 5804 5803 5802 5801 5799 5798 5796 5796 5795 5794 5793 5793 5792 5791 5790 5791 5791 5791 5791 5792 5792 5793 5793 5793 5794 5795 5796 5797 5798 5799 5799
5808 5808 5809 5809 5807 5805 5803 5802 5801 5800 5798 5797 5796 5795 5794 5793 5791 5790 5789 5788 5787 5786 5785 5785 5785 5783 5783 5783 5783 5783 5784 5784 5785 5785 5786 5786 5787 5789 5790 5791 5793 5794 5795
5804 5803 5802 5802 5801 5799 5796 5794 5793 5791 5790 5788 5786 5785 5785 5783 5782 5781 5780 5779 5777 5777 5776 5776 5776 5775 5775 5775 5776 5776 5776 5778 5778 5778 5778 5779 5779 5781 5782 5784 5786 5787 5789
5799 5798 5796 5794 5793 5791 5789 5787 5784 5782 5781 5779 5777 5775 5774 5773 5772 5772 5771 5769 5768 5767 5766 5765 5765 5765 5765 5766 5766 5768 5768 5768 5769 5771 5770 5770 5771 5772 5774 5775 5778 5780 5782
5791 5789 5787 5785 5783 5780 5778 5776 5774 5772 5770 5768 5766 5765 5763 5762 5760 5759 5759 5758 5757 5757 5756 5755 5754 5755 5755 5755 5755 5757 5759 5760 5761 5760 5761 5763 5762 5763 5765 5767 5769 5771 5774
5781 5778 5776 5773 5770 5768 5766 5764 5762 5760 5759 5757 5756 5754 5752 5751 5750 5749 5748 5747 5747 5747 5746 5745 5744 5743 5743 5743 5744 5744 5746 5749 5751 5751 5751 5752 5754 5755 5756 5758 5760 5761 5765
5770 5767 5764 5760 5757 5755 5753 5751 5749 5748 5746 5745 5743 5742 5741 5740 5739 5738 5738 5736 5736 5736 5735 5735 5734 5732 5732 5732 5732 5732 5734 5735 5739 5741 5742 5743 5744 5745 5747 5747 5749 5752 5754
5758 5755 5752 5749 5746 5743 5740 5738 5736 5735 5733 5732 5731 5731 5730 5729 5728 5727 5726 5725 5724 5724 5724 5724 5723 5721 5720 5720 5720 5720 5720 5721 5724 5727 5730 5732 5732 5734 5736 5737 5738 5741 5744
5745 5742 5739 5736 5734 5731 5729 5726 5724 5722 5721 5721 5720 5718 5718 5717 5716 5715 5715 5713 5713 5712 5712 5712 5711 5710 5709 5707 5706 5706 5706 5707 5709 5712 5714 5717 5719 5721 5723 5725 5727 5729 5733
5732 5730 5727 5724 5722 5719 5717 5714 5713 5711 5710 5709 5708 5708 5707 5706 5705 5704 5704 5703 5701 5700 5699 5698 5697 5696 5695 5693 5691 5690 5691 5692 5693 5695 5698 5701 5704 5707 5710 5712 5715 5718 5720
5721 5718 5714 5711 5709 5706 5704 5703 5701 5700 5699 5698 5697 5696 5695 5695 5694 5693 5692 5690 5689 5688 5685 5683 5681 5680 5680 5678 5675 5673 5675 5677 5679 5679 5681 5685 5688 5690 5694 5696 5699 5704 5707
5708 5706 5702 5699 5696 5694 5692 5691 5690 5689 5689 5688 5687 5686 5685 5683 5680 5679 5677 5676 5674 5672 5669 5667 5665 5664 5664 5663 5660 5657 5656 5658 5662 5665 5665 5666 5669 5674 5677 5680 5683 5687 5692
5696 5694 5689 5686 5683 5681 5679 5678 5677 5678 5677 5677 5676 5674 5673 5671 5669 5667 5664 5661 5658 5654 5651 5649 5647 5645 5644 5645 5643 5641 5639 5638 5642 5644 5648 5650 5649 5653 5658 5663 5668 5672 5676
5681 5678 5674 5671 5669 5668 5667 5667 5666 5667 5666 5665 5664 5662 5660 5657 5654 5651 5648 5646 5643 5640 5636 5632 5629 5627 5623 5623 5623 5623 5623 5623 5625 5624 5626 5630 5631 5633 5638 5643 5648 5654 5659
5667 5664 5661 5659 5656 5655 5655 5656 5656 5656 5656 5655 5653 5651 5648 5644 5641 5637 5633 5629 5626 5622 5619 5616 5613 5609 5605 5602 5600 5601 5603 5604 5605 5606 5608 5611 5612 5616 5620 5623 5628 5634 5640